Aérodrome :
LOGIN :

S'inscrire | Disclaimer

   EN    FR    IT 

 










Légende :    VFR   VFR Marginal   IFR   IFR Intensif   IFR Très Intensif
Visi : 
Plafond : 
>= 8 km
>= 3000ft
5 à 8 km
1000 à 3000 ft
1500m à 5 km
500 à 1000 ft
800 à 1500m
200 à 500 ft
< 800m
< 200 ft
Symboles :   Orages  Brouillard  Fortes neiges  Fortes précipitations  Vent > 20 kt
SIGMETs :   Divers  Orages  Givrage  Turbulence  Onde Orograph.  Cendres Volcan.






- Altitude de l'aérodrome : 308 ft


ESCF - Malmen AB

DERNIER METAR :
  • 180950Z 26016KT 9999 FEW020 14/08 Q1024

METARs EXPIRÉS :
  • 180920Z 26016KT 9999 FEW020 13/08 Q1025
  • 180850Z 26015KT 9999 FEW018 13/09 Q1025
  • 180820Z 25014KT 9999 SCT016 12/09 Q1025
  • 180750Z 25011KT 9999 BKN015 12/09 Q1025
  • 180720Z 23007KT 200V290 9999 BKN013 11/09 Q1025

TAF TAF ESCF
Valide du 18 à 09h jusqu'au 18 à 13h UTC


180830Z 1809/1813 26015G22KT 9999 FEW018 RMK MIL



MET'MAP, la Météo Aéronautique d'un coup d'oeil ! - Copyright ORBIFLY Décembre 2007 - Disclaimer

ORBIFLY MET'MAP TEAM :

Programmation & Développement : Alexandra Zaïnal
Sur une idée originale de : Baudouin d'Aumeries
Assistance à la programmation : Marc-Olivier Méhu
Soutien technique & logistique : Manuel Goepfert

Contact : metmap@orbifly.com




SOURCES & CREDITS :

   NOAA